Helicity
184 156 168 133 148 145 112 116 133 153 169 182 171 159 141 102 94 114 124 72 44 20
181 221 202 220 205 151 143 152 155 160 173 196 192 146 163 175 155 136 139 136 103 37
198 200 213 224 196 180 167 194 198 191 179 189 203 195 186 178 184 169 143 134 154 123
207 200 226 219 203 208 206 197 222 224 221 190 166 161 181 168 152 152 132 125 129 110
230 234 253 238 227 224 232 231 235 229 202 178 150 141 143 149 136 121 124 111 104 102
258 273 292 309 319 308 311 293 240 208 183 166 157 139 138 129 113 104 114 105 98 70
309 303 301 314 308 308 285 265 231 191 168 131 139 143 131 107 82 93 84 65 58 56
297 314 294 254 284 269 254 235 210 183 165 123 153 139 93 64 46 62 48 30 19 30
309 289 261 238 229 237 244 236 162 133 121 109 149 135 95 65 39 45 30 24 45 70
291 249 237 266 228 226 196 163 141 118 110 130 158 133 128 73 101 116 73 86 79 80
247 237 242 247 206 189 184 137 125 132 140 162 155 144 167 157 184 188 173 123 89 91
256 234 238 205 212 183 159 119 154 174 156 167 162 157 189 160 145 148 143 109 86 88
281 232 251 273 178 151 140 153 233 177 148 142 175 158 172 121 121 141 132 113 95 110
332 279 205 78 134 183 244 323 293 231 169 167 172 172 190 196 146 120 112 99 80 64
Wind_Speed
10 10 12 11 13 17 22 26 28 31 33 34 34 33 34 34 35 37 38 34 35 36
8 8 7 10 13 17 22 25 27 29 31 33 33 31 32 34 35 35 35 35 37 32
4 2 6 9 13 17 20 24 26 29 29 29 30 30 30 31 33 32 32 33 34 36
2 3 5 8 12 16 19 22 25 27 28 28 26 27 29 29 29 29 30 32 33 36
3 1 3 7 11 15 20 23 23 23 24 26 25 25 25 26 26 27 29 31 33 35
6 4 3 6 10 15 19 22 21 21 21 21 22 23 24 23 24 26 30 33 34 35
9 8 6 7 10 15 17 18 18 17 18 18 20 22 20 21 23 26 28 30 33 36
13 10 9 10 11 14 16 15 12 12 15 17 19 18 17 18 21 24 26 28 31 35
19 16 13 11 11 12 11 8 6 7 11 13 16 15 14 16 18 21 23 27 31 37
19 18 15 13 10 9 4 2 3 5 9 11 12 13 17 18 21 22 23 26 33 38
19 18 17 13 12 7 5 3 1 3 8 8 10 13 18 15 19 22 27 30 34 38
17 17 16 14 10 9 7 5 3 2 5 5 9 13 18 12 16 21 25 30 34 38
12 12 11 12 12 10 6 5 3 1 5 4 7 14 19 17 14 18 23 29 34 38
8 8 10 10 12 9 7 5 2 3 8 8 9 15 20 16 12 15 20 26 32 35
Wind_Direction
297 316 329 341 354 360 359 360 2 2 1 0 2 8 8 9 9 7 5 13 15 21
298 323 340 2 9 6 7 6 6 5 4 3 5 9 10 8 8 8 7 6 12 20
285 341 3 8 4 3 9 7 7 6 7 6 8 10 8 7 7 7 3 7 11 11
274 328 352 2 359 1 4 6 7 9 8 9 7 9 8 6 7 5 10 11 13 10
263 286 351 351 358 2 1 4 6 11 10 11 14 12 12 15 8 17 20 19 17 10
259 253 304 345 356 358 357 358 4 13 14 17 22 23 22 19 26 31 31 27 20 14
252 263 282 323 343 349 354 357 3 13 21 26 32 27 26 33 38 37 31 24 18 15
254 256 279 306 327 339 345 349 6 16 33 42 37 25 32 37 40 34 24 19 14 9
255 258 264 287 313 332 346 6 18 25 53 43 14 7 24 32 36 26 20 12 13 8
251 252 252 274 293 317 338 40 28 53 56 26 18 360 353 10 20 19 18 16 8 4
238 246 253 261 276 285 272 261 78 41 57 29 359 349 350 41 28 15 9 9 7 6
229 235 242 250 248 267 257 231 287 104 36 358 327 338 342 22 11 6 4 5 7 6
203 219 226 250 257 249 242 237 267 255 329 357 313 325 331 341 4 7 7 4 6 5
192 223 246 238 243 240 256 273 280 286 317 323 305 316 330 348 355 2 3 1 2 4